This demonstration page uses our WeatherBlox Daily Observations layout. Learn more.

Left ArrowRight Arrow

39.51506, -84.39828

Hourly Observations for May 20, 2015

Temp ( °F °C ) Dew Point ( °F °C ) Humidity (%) Winds ( mph kmh ) Pressure ( in mb ) Visibility ( mi km ) Precip ( " mm )
12:15 am 00:15 Clear 51 10.4 41 5.2 70 70 N 6 9 30.18 1022 10 16 0.00 0.00
12:35 am 00:35 Clear 49 9.6 40 4.7 72 72 NNE 5 7 30.15 1021 10 16 0.00 0.00
12:55 am 00:55 Clear 49 9.6 41 5.2 74 74 N 3 6 30.18 1022 10 16 0.00 0.00
1:15 am 01:15 Clear 49 9.6 42 5.5 76 76 N 3 6 30.18 1022 10 16 0.00 0.00
1:35 am 01:35 Clear 49 9.6 41 5.2 74 74 NNW 3 6 30.18 1022 10 16 0.00 0.00
1:55 am 01:55 Clear 49 9.6 41 5.1 74 74 N 3 6 30.18 1022 10 16 0.00 0.00
2:15 am 02:15 Clear 49 9.6 41 5 73 73 NNW 5 7 30.18 1022 10 16 0.00 0.00
2:35 am 02:35 Clear 49 9.6 40 4.7 72 72 NNW 5 7 30.18 1022 10 16 0.00 0.00
2:55 am 02:55 Clear 49 9.6 40 4.5 71 71 N 5 7 30.18 1022 10 16 0.00 0.00
3:15 am 03:15 Clear 49 9.6 41 4.8 72 72 NNW 5 7 30.18 1022 10 16 0.00 0.00
3:35 am 03:35 Clear 49 9.6 41 5 73 73 N 3 6 30.18 1022 10 16 0.00 0.00
3:55 am 03:55 Clear 47 8.2 39 4 75 75 NNW 6 9 30.18 1022 10 16 0.00 0.00
4:15 am 04:15 Clear 49 9.6 40 4.5 71 71 N 6 9 30.18 1022 10 16 0.00 0.00
4:35 am 04:35 Clear 47 8.2 38 3.1 71 71 N 6 9 30.18 1022 10 16 0.00 0.00
4:55 am 04:55 Clear 47 8.2 38 3.2 71 71 N 7 11 30.18 1022 10 16 0.00 0.00
5:15 am 05:15 Clear 45 7.3 36 2.4 71 71 N 6 9 30.18 1022 10 16 0.00 0.00
5:35 am 05:35 Clear 44 6.8 36 2.1 72 72 N 6 9 30.15 1021 10 16 0.00 0.00
5:55 am 05:55 Clear 43 6.2 35 1.5 72 72 N 5 7 30.15 1021 10 16 0.00 0.00
6:15 am 06:15 Clear 42 5.8 35 1.5 74 74 NNE 6 9 30.15 1021 10 16 0.00 0.00
6:35 am 06:35 Sunny 42 5.6 35 1.5 75 75 NNE 5 7 30.18 1022 10 16 0.00 0.00
6:55 am 06:55 Sunny 43 6 35 1.5 73 73 NNE 5 7 30.18 1022 10 16 0.00 0.00
7:15 am 07:15 Sunny 44 6.5 35 1.6 71 71 N 6 9 30.18 1022 10 16 0.00 0.00
7:35 am 07:35 Sunny 47 8.2 36 2.4 67 67 N 7 11 30.18 1022 10 16 0.00 0.00
7:55 am 07:55 Sunny 47 8.2 36 2.1 66 66 NNE 9 15 30.18 1022 10 16 0.00 0.00
8:15 am 08:15 Sunny 49 9.6 37 3 64 64 N 8 13 30.21 1023 10 16 0.00 0.00
8:35 am 08:35 Sunny 49 9.6 37 2.5 62 62 NE 8 13 30.21 1023 10 16 0.00 0.00
8:55 am 08:55 Sunny 49 9.6 36 2.2 60 60 NE 7 11 30.21 1023 10 16 0.00 0.00
9:15 am 09:15 Sunny 49 9.6 35 1.7 58 58 NNE 9 15 30.21 1023 10 16 0.00 0.00
9:35 am 09:35 Sunny 50 10.2 36 2.1 57 57 NNE 8 13 30.18 1022 10 16 0.00 0.00
9:55 am 09:55 Sunny 52 11 36 2.2 55 55 ENE 9 15 30.18 1022 10 16 0.00 0.00
10:15 am 10:15 Sunny 55 12.5 37 2.9 52 52 ENE 8 13 30.18 1022 10 16 0.00 0.00
10:35 am 10:35 Sunny 55 12.5 38 3.4 54 54 E 3 6 30.18 1022 10 16 0.00 0.00
10:55 am 10:55 Sunny 55 12.5 37 2.9 52 52 E 3 6 30.15 1021 10 16 0.00 0.00
11:15 am 11:15 Sunny 55 12.5 37 2.9 52 52 NE 5 7 30.18 1022 10 16 0.00 0.00
11:35 am 11:35 Sunny 55 12.5 37 2.8 52 52 N 6 9 30.18 1022 10 16 0.00 0.00
11:55 am 11:55 Sunny 55 12.5 37 2.8 52 52 ENE 3 6 30.18 1022 10 16 0.00 0.00
12:15 pm 12:15 Sunny 55 12.5 37 2.6 51 51 ENE 5 7 30.18 1022 10 16 0.00 0.00
12:35 pm 12:35 Sunny 55 12.5 36 2.3 50 50 NE 5 7 30.18 1022 10 16 0.00 0.00
12:55 pm 12:55 Sunny 55 12.5 37 2.6 51 51 N 3 6 30.18 1022 10 16 0.00 0.00
1:15 pm 13:15 Sunny 57 13.8 38 3.4 50 50 ENE 7 11 30.15 1021 10 16 0.00 0.00
1:35 pm 13:35 Sunny 57 13.8 38 3.5 50 50 NE 7 11 30.15 1021 10 16 0.00 0.00
1:55 pm 13:55 Sunny 57 13.8 39 3.9 52 52 ENE 7 11 30.15 1021 10 16 0.00 0.00
2:15 pm 14:15 Sunny 57 13.8 39 3.8 51 51 ENE 7 11 30.15 1021 10 16 0.00 0.00
2:35 pm 14:35 Sunny 57 13.8 38 3.6 50 50 NNE 8 13 30.15 1021 10 16 0.00 0.00
2:55 pm 14:55 Sunny 57 13.8 38 3.6 50 50 NNE 8 13 30.12 1020 10 16 0.00 0.00
3:15 pm 15:15 Partly Cloudy 57 13.8 38 3.5 50 50 NE 8 13 30.12 1020 10 16 0.00 0.00
3:35 pm 15:35 Mostly Cloudy 57 13.9 39 4.1 52 52 NE 6 9 30.12 1020 10 16 0.00 0.00
3:55 pm 15:55 Cloudy 57 13.8 38 3.6 50 50 NE 7 11 30.12 1020 10 16 0.00 0.00
4:15 pm 16:15 Partly Cloudy 58 14.4 39 4.1 50 50 NE 10 17 30.12 1020 10 16 0.00 0.00
4:35 pm 16:35 Sunny 57 14 38 3.6 50 50 ENE 6 9 30.12 1020 10 16 0.00 0.00
4:55 pm 16:55 Mostly Cloudy 58 14.2 39 3.9 50 50 E 9 15 30.09 1019 10 16 0.00 0.00
5:15 pm 17:15 Cloudy 57 14 39 4.1 52 52 ENE 7 11 30.09 1019 10 16 0.00 0.00
5:35 pm 17:35 Cloudy 60 15.3 40 4.7 49 49 NE 5 7 30.09 1019 10 16 0.00 0.00
5:55 pm 17:55 Cloudy 60 15.3 42 5.5 52 52 NE 6 9 30.09 1019 10 16 0.00 0.00
6:15 pm 18:15 Mostly Cloudy 60 15.3 42 5.6 53 53 ENE 8 13 30.06 1018 10 16 0.00 0.00
6:35 pm 18:35 Cloudy 60 15.3 42 5.6 53 53 ENE 7 11 30.06 1018 10 16 0.00 0.00
6:55 pm 18:55 Cloudy with Light Rain 60 15.3 44 6.5 56 56 ENE 7 11 30.06 1018 10 16 0.00 0.00
7:15 pm 19:15 Cloudy with Drizzle 60 15.3 44 6.6 56 56 NE 9 15 30.03 1017 10 16 0.00 0.00
7:35 pm 19:35 Cloudy with Light Rain 58 14.2 43 6.2 59 59 ENE 8 13 30.03 1017 10 16 0.00 0.00
7:55 pm 19:55 Cloudy 57 14 42 5.4 56 56 ENE 9 15 30.03 1017 10 16 0.00 0.00
8:15 pm 20:15 Cloudy 57 13.8 41 5 56 56 NE 7 11 30.03 1017 10 16 0.00 0.00
8:35 pm 20:35 Cloudy with Drizzle 57 13.8 41 5.2 56 56 NE 7 11 30.03 1017 10 16 0.00 0.00
8:55 pm 20:55 Cloudy with Rain 57 13.8 44 6.6 62 62 NE 7 11 30.03 1017 10 16 0.00 0.00
9:15 pm 21:15 Cloudy with Light Rain 57 13.7 45 7 64 64 NE 8 13 30.03 1017 10 16 0.00 0.00
9:35 pm 21:35 Cloudy with Drizzle 55 12.5 43 6.2 66 66 NE 7 11 30.03 1017 10 16 0.00 0.00
9:55 pm 21:55 Cloudy 55 12.5 45 7 69 69 NNE 7 11 30.03 1017 10 16 0.00 0.00
10:15 pm 22:15 Cloudy with Drizzle 55 12.5 45 7.1 70 70 NNE 5 7 30.03 1017 10 16 0.00 0.00
10:35 pm 22:35 Cloudy 55 12.5 44 6.7 68 68 N 3 6 30.03 1017 10 16 0.00 0.00
10:55 pm 22:55 Cloudy 55 12.5 44 6.6 68 68 N 5 7 30.03 1017 10 16 0.00 0.00
11:15 pm 23:15 Cloudy 55 12.5 45 7.2 70 70 NNE 3 6 30.03 1017 10 16 0.00 0.00
11:35 pm 23:35 Cloudy with Light Rain 55 12.5 43 6.2 66 66 N 6 9 30.03 1017 10 16 0.00 0.00
11:55 pm 23:55 Cloudy with Drizzle 55 12.5 44 6.7 68 68 N 3 6 30.03 1017 10 16 0.00 0.00

Powered by AerisWeather